Temperature
16 16 16 16 16 16 16 16 16 16 16 15 15 15 15 15 15 14 14 14 14 15 15 14 14 14 14 14 14 14 14 14 14 14 13 13 13 13
16 16 16 16 16 15 16 16 16 16 15 15 15 15 14 14 14 14 14 14 14 14 14 14 14 14 14 14 13 13 13 13 13 13 13 13 13 13
16 16 16 16 15 15 15 15 15 15 15 15 14 14 14 14 14 13 13 13 13 13 13 13 13 13 13 13 13 13 13 12 12 12 12 12 12 12
15 15 15 15 15 15 15 15 15 15 14 14 14 14 13 13 13 13 13 13 13 13 13 13 12 12 12 12 12 12 12 12 12 12 12 11 11 11
15 15 15 15 15 14 15 14 14 14 14 14 13 13 13 13 13 12 12 12 12 12 12 12 12 12 11 11 11 11 11 11 11 11 11 11 11 10
15 15 14 14 14 14 14 14 14 14 13 13 13 13 13 12 12 12 12 11 11 11 11 11 11 11 11 11 11 10 10 10 10 10 10 10 10 10
14 14 14 14 14 14 13 13 13 13 13 13 12 12 12 11 11 11 11 11 11 10 10 10 10 10 10 10 10 10 10 9 9 9 9 9 9 9
13 13 13 13 13 13 13 13 13 12 12 12 12 11 11 11 11 11 11 11 10 10 10 10 9 9 9 9 9 9 9 9 9 9 8 8 8 8
13 13 12 12 12 12 12 12 12 12 12 11 11 11 11 10 10 10 10 10 10 9 9 9 9 9 8 8 8 8 8 8 8 8 8 8 7 7
12 12 12 12 12 12 11 11 11 11 11 11 11 10 10 10 10 10 10 9 9 9 9 9 9 8 8 8 8 8 8 7 7 7 7 7 7 7
12 12 11 11 11 11 11 11 11 10 10 10 10 10 10 10 10 10 9 10 9 9 9 9 8 8 8 8 8 7 7 7 7 7 7 7 6 6
11 11 11 11 11 11 10 10 10 10 10 9 9 9 9 9 9 9 9 9 10 9 8 9 9 8 8 8 7 7 7 7 7 6 6 6 6 6
11 10 10 11 10 10 10 10 10 9 9 9 9 9 9 9 9 9 9 9 9 9 8 8 8 8 9 8 7 7 7 7 6 6 6 6 6 6
10 10 10 10 10 10 10 9 9 9 9 9 9 9 9 8 8 8 8 8 8 8 8 8 8 8 8 8 8 7 7 7 6 6 6 6 6 5
10 10 10 9 9 9 9 9 9 9 9 9 9 9 8 8 8 8 8 8 8 7 7 7 7 8 8 8 8 8 7 7 6 6 6 6 6 6
9 9 9 9 9 9 8 8 8 8 8 9 8 8 8 8 8 8 8 8 8 8 7 7 7 7 7 7 7 7 7 7 7 6 6 6 6 6
9 9 9 9 8 8 8 8 8 8 8 8 8 8 8 8 8 8 7 8 8 8 8 7 7 7 7 7 7 7 7 7 7 6 6 6 6 6
9 9 9 9 9 8 8 8 8 8 8 8 8 8 8 8 8 7 7 8 8 8 7 7 7 7 7 7 7 7 7 7 6 6 6 6 6 6
9 9 9 8 8 8 8 8 8 8 7 8 8 8 7 8 7 7 7 7 7 7 7 7 7 7 7 8 7 6 6 6 6 6 6 6 6 6
9 9 8 8 8 8 8 8 8 8 7 7 7 7 7 7 7 7 7 7 7 7 7 7 7 7 7 7 7 6 6 6 6 6 6 6 6 6
9 8 8 8 8 8 8 8 7 7 7 7 7 7 7 7 7 7 7 7 7 7 7 7 6 6 6 6 7 7 7 6 6 6 6 6 6 6
8 8 8 8 8 8 7 7 7 7 7 7 7 7 7 7 7 7 7 7 7 7 7 7 7 6 6 7 7 7 7 6 6 6 6 6 6 6
8 8 8 8 8 7 7 7 7 7 7 7 7 7 7 7 7 7 7 7 7 7 7 7 7 7 7 7 7 7 6 6 6 6 6 6 6 5
Wind_Speed
4 4 4 3 3 4 4 5 5 5 4 2 1 1 2 2 3 3 4 7 6 5 4 4 3 2 2 1 1 1 1 1 1 2 3 3 3 3
2 2 3 3 3 3 4 4 5 4 3 2 1 0 2 2 5 5 5 9 8 7 6 6 6 5 5 4 4 3 2 2 1 1 1 0 0 1
1 2 2 3 2 2 2 3 3 3 3 3 1 1 2 2 3 4 4 5 8 10 9 9 9 9 9 8 7 7 6 5 4 4 3 3 3 2
1 1 2 2 2 2 2 2 2 2 3 3 1 1 1 2 3 3 4 6 8 11 11 10 10 10 10 10 10 9 9 8 8 7 6 5 5 5
2 2 2 2 2 2 2 2 1 1 1 2 1 0 1 1 2 3 4 4 5 8 9 10 10 11 11 11 11 10 9 9 9 8 8 7 7 7
4 4 4 4 3 2 1 1 1 1 2 2 2 1 1 1 1 1 2 2 3 4 7 7 9 9 11 11 10 10 9 9 9 9 9 9 9 8
6 6 7 8 9 7 4 4 3 1 1 2 2 1 1 1 1 0 1 2 3 3 3 4 5 6 7 9 9 9 9 9 9 10 11 11 10 10
6 6 7 8 10 10 11 11 8 4 3 2 2 2 1 1 0 0 1 1 1 2 2 3 4 4 5 8 9 8 8 8 8 8 9 9 9 9
6 5 5 6 7 7 8 9 10 9 6 4 3 3 2 1 1 1 1 1 2 1 1 2 2 3 4 8 8 7 7 6 6 6 6 7 8 8
6 6 6 6 6 5 6 7 8 8 7 5 5 4 4 3 1 1 2 3 3 2 1 1 1 1 3 5 6 5 4 4 4 5 5 6 5 5
6 6 5 6 6 5 5 7 7 7 9 9 7 6 7 7 5 2 2 2 2 2 1 0 0 1 1 2 4 5 5 5 5 4 3 3 1 1
5 6 9 7 7 6 5 5 6 5 5 6 6 5 5 6 5 3 2 1 1 2 2 1 0 0 0 2 2 3 4 6 6 5 3 1 2 2
4 5 6 8 8 7 5 5 4 2 4 4 5 5 5 5 6 6 5 4 3 3 3 2 2 2 1 1 1 2 1 1 2 3 5 4 2 2
5 5 6 7 8 7 6 5 3 2 2 3 4 5 5 5 6 6 7 7 6 5 4 4 2 2 2 2 1 1 1 1 2 2 1 5 6 5
6 8 7 5 5 7 7 3 2 2 3 4 4 4 5 5 4 3 4 4 4 5 5 4 4 3 3 3 2 2 1 1 1 2 2 2 2 2
6 8 7 4 4 5 4 3 4 4 4 4 4 4 4 3 3 3 3 3 2 3 4 3 2 3 3 3 3 2 2 2 1 2 3 3 3 2
4 5 5 4 4 4 4 4 3 3 3 3 3 3 3 3 3 3 3 2 2 3 3 2 2 2 2 3 3 2 2 2 2 1 3 4 3 3
2 4 4 4 3 3 3 3 3 3 3 3 3 3 3 3 3 3 3 3 3 3 3 3 3 2 2 1 1 3 3 3 3 3 5 4 4 3
2 4 3 3 3 2 2 2 2 3 2 2 2 2 2 2 2 2 2 3 3 3 3 3 4 4 5 4 0 2 4 4 5 4 5 5 5 4
2 3 3 3 2 1 1 1 1 2 1 1 2 2 2 2 2 2 2 3 4 4 3 3 4 5 6 6 5 4 5 5 5 6 6 6 6 5
2 2 1 2 1 1 1 1 1 1 1 1 1 1 2 2 3 3 3 2 4 4 5 4 3 4 6 6 6 5 4 4 5 6 7 8 7 7
2 2 1 1 1 1 1 1 1 0 1 1 1 2 2 3 3 4 4 4 4 5 5 5 3 4 6 6 7 7 6 5 7 12 12 10 8 9
3 2 2 2 2 2 2 1 1 1 1 2 2 3 3 4 4 5 5 5 5 6 7 7 6 5 6 7 7 7 8 7 7 7 7 12 16 16
Wind_Direction
247 246 248 254 256 255 250 250 254 261 269 252 215 82 78 75 79 82 76 84 83 72 63 55 48 39 29 25 20 350 328 294 289 270 254 258 246 231
258 266 264 262 265 260 258 260 260 260 268 286 264 188 63 78 97 90 89 87 79 77 71 64 59 54 52 47 41 39 38 36 25 8 330 182 210 198
269 260 268 283 286 279 268 261 257 241 241 266 247 128 95 63 81 82 83 78 75 73 74 71 66 63 61 57 52 49 50 51 54 55 68 82 86 86
348 341 318 311 314 311 302 279 268 245 219 225 226 159 105 83 79 75 73 74 77 77 77 76 74 70 65 62 58 57 55 55 57 57 62 73 78 77
38 25 359 346 341 343 330 318 297 223 173 181 193 111 87 79 86 91 81 77 80 92 90 83 79 74 67 62 59 59 60 61 62 62 63 68 70 70
44 39 25 15 3 3 22 27 45 110 135 150 145 121 92 83 74 104 101 85 65 65 74 83 90 85 75 67 62 61 62 64 64 67 71 74 72 69
58 55 53 53 45 38 41 42 46 62 92 109 115 97 64 66 22 347 108 118 84 57 71 72 78 75 77 71 64 65 69 73 74 74 75 75 73 72
68 65 68 68 70 68 61 55 46 50 58 70 76 76 49 9 332 135 118 130 80 33 50 58 58 63 69 66 68 72 74 77 80 82 81 78 77 75
69 66 67 68 70 78 86 86 69 55 45 52 64 44 45 25 353 90 78 70 69 60 52 65 53 60 77 82 83 78 78 80 83 87 89 82 73 70
73 70 71 67 57 62 82 80 73 60 54 61 63 46 38 17 358 97 130 130 118 89 14 53 59 58 83 96 107 102 99 94 92 92 87 79 73 71
74 66 66 73 41 28 84 86 81 80 80 78 72 69 60 42 20 49 100 124 108 93 46 13 88 79 97 99 132 152 144 127 113 106 97 77 40 0
88 79 65 59 36 21 77 85 85 77 77 88 90 89 77 70 52 27 19 54 74 83 54 327 24 266 102 83 86 119 143 153 154 150 145 112 344 327
94 88 74 59 50 37 47 74 60 50 88 87 85 78 74 66 57 49 27 16 19 44 39 354 13 353 354 50 63 62 62 86 149 169 179 182 205 308
89 89 87 76 68 54 61 47 344 312 84 80 73 66 60 58 57 54 51 48 43 47 30 358 359 349 337 338 11 45 44 12 345 336 319 189 205 213
87 81 91 102 115 90 70 25 353 60 71 73 71 66 63 58 58 75 84 83 81 68 51 11 352 347 325 334 348 1 359 2 328 322 319 306 293 259
110 118 125 105 96 91 103 74 59 50 52 68 71 71 69 66 49 37 40 44 52 68 70 40 3 339 335 343 329 332 333 323 323 334 323 303 287 280
131 133 126 119 107 94 87 75 68 70 65 63 64 65 63 59 49 36 18 11 17 19 22 25 9 322 307 308 323 331 325 322 327 341 295 292 291 289
169 126 121 117 108 99 94 92 82 67 61 60 58 52 48 48 39 29 13 5 8 7 6 1 348 324 281 187 322 319 318 321 322 306 291 298 298 295
159 122 119 115 111 105 95 82 82 80 55 46 43 35 24 15 10 7 0 354 353 352 350 346 339 333 326 328 204 213 313 313 303 299 297 299 297 299
143 124 123 121 115 104 102 91 84 86 75 33 25 13 2 348 346 339 348 348 336 331 328 330 336 334 324 321 315 291 244 282 301 302 303 302 296 281
149 146 143 135 133 134 117 105 79 62 21 320 351 343 332 325 329 326 327 327 302 313 321 328 349 300 290 291 290 292 288 235 252 282 297 298 298 294
165 165 156 160 171 184 182 186 189 206 231 266 326 322 315 312 313 312 316 313 305 309 313 315 311 293 290 294 297 300 298 296 261 240 249 263 291 303
185 187 185 190 186 193 202 202 228 266 293 306 311 310 307 307 305 306 304 302 303 304 302 302 304 298 296 292 292 294 296 295 294 287 267 234 233 247
Height
1558 1558 1558 1559 1559 1560 1560 1561 1562 1561 1561 1562 1561 1561 1561 1560 1559 1559 1558 1557 1556 1555 1554 1554 1553 1552 1551 1550 1550 1549 1549 1549 1549 1548 1549 1549 1549 1549
1555 1555 1555 1556 1556 1557 1557 1558 1558 1559 1558 1558 1559 1558 1558 1558 1557 1557 1556 1555 1554 1553 1552 1551 1550 1549 1548 1547 1546 1546 1545 1545 1544 1544 1544 1544 1544 1544
1553 1553 1553 1554 1554 1554 1554 1555 1555 1555 1555 1555 1556 1555 1555 1555 1555 1555 1555 1553 1552 1551 1550 1549 1548 1547 1546 1544 1544 1543 1542 1541 1541 1540 1540 1540 1540 1540
1552 1552 1552 1552 1551 1552 1552 1552 1552 1552 1553 1552 1553 1553 1553 1553 1553 1553 1553 1552 1551 1549 1548 1547 1546 1545 1544 1542 1541 1540 1539 1538 1538 1537 1537 1536 1536 1536
1551 1551 1550 1550 1550 1550 1549 1549 1549 1550 1550 1550 1550 1550 1551 1551 1551 1551 1550 1550 1549 1548 1547 1546 1545 1544 1543 1541 1540 1539 1538 1537 1536 1535 1535 1534 1533 1533
1550 1550 1549 1549 1548 1548 1548 1547 1547 1547 1547 1548 1548 1548 1549 1548 1549 1549 1549 1548 1548 1548 1546 1545 1544 1543 1542 1541 1539 1538 1537 1536 1535 1534 1533 1532 1531 1531
1550 1549 1548 1548 1547 1546 1546 1546 1546 1546 1546 1546 1547 1547 1547 1547 1547 1547 1547 1547 1546 1546 1546 1545 1544 1543 1541 1540 1539 1538 1536 1535 1534 1533 1531 1530 1529 1529
1549 1549 1548 1547 1546 1546 1545 1545 1545 1545 1545 1546 1546 1546 1545 1545 1545 1546 1546 1546 1545 1546 1545 1544 1543 1542 1541 1540 1539 1538 1536 1535 1533 1532 1531 1530 1529 1528
1550 1549 1549 1548 1547 1547 1546 1545 1545 1545 1545 1546 1545 1545 1545 1544 1544 1545 1544 1545 1544 1544 1544 1543 1543 1542 1542 1540 1539 1537 1536 1535 1533 1532 1530 1529 1528 1527
1550 1549 1549 1548 1548 1548 1548 1547 1546 1546 1546 1546 1545 1545 1544 1544 1544 1544 1544 1544 1543 1543 1543 1543 1542 1542 1541 1540 1538 1537 1536 1535 1533 1532 1530 1529 1528 1527
1550 1550 1550 1549 1549 1549 1549 1548 1548 1548 1547 1546 1546 1545 1544 1544 1544 1544 1544 1544 1544 1543 1543 1543 1542 1542 1541 1540 1538 1537 1536 1534 1533 1532 1530 1529 1528 1527
1551 1550 1550 1550 1550 1549 1549 1549 1549 1549 1549 1548 1547 1546 1546 1545 1544 1544 1544 1544 1544 1543 1542 1542 1542 1541 1541 1540 1539 1537 1536 1534 1533 1532 1531 1530 1529 1528
1552 1551 1551 1550 1550 1550 1550 1550 1549 1550 1550 1549 1549 1548 1547 1546 1546 1544 1544 1544 1544 1543 1543 1542 1541 1541 1540 1540 1539 1538 1536 1535 1534 1532 1531 1530 1529 1528
1552 1552 1551 1551 1551 1551 1550 1550 1550 1551 1551 1551 1550 1550 1549 1548 1547 1545 1544 1544 1543 1543 1542 1541 1541 1540 1540 1539 1538 1537 1536 1535 1534 1534 1532 1530 1529 1528
1552 1552 1552 1552 1552 1552 1552 1551 1552 1552 1552 1551 1551 1550 1550 1549 1548 1547 1546 1545 1544 1543 1542 1541 1540 1540 1539 1538 1537 1537 1536 1535 1534 1533 1532 1531 1530 1528
1553 1553 1553 1553 1553 1553 1553 1553 1553 1553 1552 1552 1552 1551 1551 1550 1549 1548 1548 1547 1546 1544 1542 1541 1540 1539 1538 1538 1537 1536 1535 1535 1534 1533 1531 1530 1529 1528
1554 1554 1555 1555 1555 1555 1555 1554 1554 1554 1554 1553 1553 1552 1551 1551 1550 1549 1548 1547 1546 1545 1544 1542 1541 1539 1538 1537 1537 1536 1535 1534 1533 1532 1530 1529 1528 1527
1555 1555 1555 1555 1555 1556 1556 1555 1555 1555 1554 1554 1554 1553 1552 1552 1551 1550 1549 1548 1547 1546 1544 1543 1541 1540 1539 1537 1537 1536 1535 1534 1533 1531 1530 1529 1527 1527
1555 1556 1556 1556 1556 1556 1556 1556 1556 1555 1555 1555 1554 1554 1553 1552 1551 1550 1550 1549 1547 1546 1545 1543 1542 1540 1539 1537 1536 1535 1534 1533 1531 1530 1529 1527 1526 1525
1556 1556 1556 1556 1556 1557 1557 1557 1557 1556 1556 1555 1555 1554 1553 1553 1552 1551 1550 1548 1547 1546 1545 1543 1542 1540 1539 1537 1535 1534 1532 1531 1530 1529 1527 1526 1524 1523
1556 1556 1556 1556 1556 1556 1556 1557 1557 1556 1556 1555 1555 1554 1553 1553 1552 1550 1549 1548 1546 1545 1544 1543 1541 1539 1537 1536 1534 1532 1531 1529 1528 1526 1525 1524 1522 1520
1555 1555 1555 1555 1555 1556 1556 1556 1556 1556 1555 1555 1554 1554 1553 1552 1551 1550 1548 1547 1546 1545 1543 1541 1539 1538 1536 1535 1532 1531 1529 1527 1525 1523 1521 1521 1520 1517
1554 1554 1554 1555 1555 1555 1555 1555 1555 1555 1555 1554 1553 1553 1552 1551 1550 1549 1547 1546 1544 1543 1541 1539 1538 1536 1534 1532 1530 1528 1526 1524 1523 1521 1519 1517 1516 1514